• En España
  • Lista de países
  • Para 7 días
  • Temperatura del agua
  • Mapa Satelital
  • El tiempo en el mapa
  • Informadores
  • user-avatar
    Iniciar sesión

    Tiempo cada hora Karelskoe Zaruche

    Hoy, 21 Junio, Jueves

    Tiempo Temperatura Precipitaciones Viento Presión Humedad
    00:00 +12°C° 0 mm 3 mps 741 mmHg 69%
    01:00 +12°C° 0 mm 3 mps 741 mmHg 72%
    02:00 +10°C° 0 mm 2 mps 741 mmHg 79%
    03:00 +11°C° 0 mm 3 mps 741 mmHg 76%
    04:00 +11°C° 0 mm 3 mps 741 mmHg 74%
    05:00 +12°C° 0 mm 4 mps 741 mmHg 72%
    06:00 +13°C° 0 mm 4 mps 741 mmHg 66%
    07:00 +15°C° 0 mm 4 mps 741 mmHg 59%
    08:00 +18°C° 0 mm 4 mps 741 mmHg 53%
    09:00 +18°C° 0 mm 4 mps 741 mmHg 52%
    10:00 +19°C° 0 mm 5 mps 741 mmHg 51%
    11:00 +20°C° 0 mm 5 mps 741 mmHg 50%
    12:00 +20°C° 0 mm 5 mps 741 mmHg 52%
    13:00 +21°C° 0 mm 5 mps 741 mmHg 54%
    14:00 +21°C° 0 mm 4 mps 742 mmHg 55%
    15:00 +21°C° 0 mm 4 mps 742 mmHg 57%
    16:00 +21°C° 0 mm 3 mps 742 mmHg 60%
    17:00 +21°C° 0 mm 3 mps 742 mmHg 63%
    18:00 +20°C° 0 mm 2 mps 741 mmHg 70%
    19:00 +18°C° 0 mm 2 mps 741 mmHg 78%
    20:00 +18°C° 0 mm 1 mps 741 mmHg 85%
    21:00 +16°C° 0 mm 2 mps 741 mmHg 89%
    22:00 +16°C° 0 mm 2 mps 741 mmHg 92%
    23:00 +15°C° 0 mm 2 mps 741 mmHg 95%

    Mañana, 22 Junio, Viernes

    Tiempo Temperatura Precipitaciones Viento Presión Humedad
    00:00 +15°C° 0 mm 2 mps 741 mmHg 95%
    01:00 +15°C° 0 mm 2 mps 741 mmHg 96%
    02:00 +14°C° 0 mm 3 mps 741 mmHg 96%
    03:00 +16°C° 0 mm 3 mps 740 mmHg 92%
    04:00 +17°C° 0 mm 3 mps 740 mmHg 88%
    05:00 +18°C° 0 mm 4 mps 740 mmHg 84%
    06:00 +19°C° 0 mm 4 mps 740 mmHg 77%
    07:00 +21°C° 0 mm 5 mps 739 mmHg 70%
    08:00 +23°C° 0 mm 5 mps 739 mmHg 62%
    09:00 +24°C° 0,1 mm 6 mps 739 mmHg 62%
    10:00 +24°C° 0,1 mm 6 mps 739 mmHg 62%
    11:00 +26°C° 0,1 mm 6 mps 738 mmHg 62%
    12:00 +25°C° 0,9 mm 5 mps 738 mmHg 71%
    13:00 +23°C° 0,9 mm 5 mps 738 mmHg 80%
    14:00 +23°C° 0,9 mm 5 mps 738 mmHg 89%
    15:00 +22°C° 1,6 mm 4 mps 738 mmHg 90%
    16:00 +22°C° 1,6 mm 4 mps 738 mmHg 91%
    17:00 +21°C° 1,6 mm 4 mps 739 mmHg 92%
    18:00 +20°C° 0,5 mm 3 mps 739 mmHg 92%
    19:00 +18°C° 0,5 mm 3 mps 739 mmHg 91%
    20:00 +17°C° 0,5 mm 2 mps 740 mmHg 91%
    21:00 +16°C° 0 mm 2 mps 740 mmHg 92%
    22:00 +14°C° 0 mm 2 mps 740 mmHg 94%
    23:00 +13°C° 0 mm 2 mps 741 mmHg 95%

    Pasado mañana, 23 Junio, Sábado

    Tiempo Temperatura Precipitaciones Viento Presión Humedad
    00:00 +12°C° 0 mm 2 mps 741 mmHg 95%
    01:00 +12°C° 0 mm 2 mps 742 mmHg 96%
    02:00 +10°C° 0 mm 2 mps 742 mmHg 96%
    03:00 +12°C° 0 mm 1 mps 743 mmHg 94%
    04:00 +12°C° 0 mm 1 mps 743 mmHg 92%
    05:00 +13°C° 0 mm 1 mps 743 mmHg 90%
    06:00 +15°C° 0 mm 1 mps 743 mmHg 79%
    07:00 +18°C° 0 mm 1 mps 744 mmHg 69%
    08:00 +20°C° 0 mm 1 mps 744 mmHg 58%
    09:00 +20°C° 0 mm 1 mps 744 mmHg 56%
    10:00 +21°C° 0 mm 1 mps 744 mmHg 54%
    11:00 +21°C° 0 mm 1 mps 744 mmHg 52%
    12:00 +21°C° 0 mm 1 mps 744 mmHg 56%
    13:00 +21°C° 0 mm 1 mps 744 mmHg 59%
    14:00 +20°C° 0 mm 1 mps 743 mmHg 63%
    15:00 +20°C° 0 mm 1 mps 743 mmHg 64%
    16:00 +20°C° 0 mm 1 mps 743 mmHg 65%
    17:00 +19°C° 0 mm 2 mps 742 mmHg 66%
    18:00 +18°C° 0,2 mm 2 mps 742 mmHg 73%
    19:00 +16°C° 0,2 mm 2 mps 742 mmHg 79%
    20:00 +15°C° 0,2 mm 2 mps 742 mmHg 85%
    21:00 +15°C° 0,3 mm 2 mps 741 mmHg 88%
    22:00 +14°C° 0,3 mm 2 mps 741 mmHg 91%
    23:00 +13°C° 0,3 mm 3 mps 741 mmHg 94%

    24 Junio, Domingo

    Tiempo Temperatura Precipitaciones Viento Presión Humedad
    00:00 +14°C° 0,3 mm 2 mps 740 mmHg 95%
    01:00 +14°C° 0,3 mm 2 mps 740 mmHg 96%
    02:00 +15°C° 0,3 mm 2 mps 740 mmHg 97%
    03:00 +16°C° 0,3 mm 3 mps 739 mmHg 97%
    04:00 +17°C° 0,3 mm 3 mps 739 mmHg 97%
    05:00 +18°C° 0,3 mm 4 mps 738 mmHg 97%
    06:00 +20°C° 0,1 mm 5 mps 738 mmHg 89%
    07:00 +22°C° 0,1 mm 5 mps 738 mmHg 82%
    08:00 +23°C° 0,1 mm 6 mps 737 mmHg 74%
    09:00 +23°C° 0,5 mm 6 mps 737 mmHg 76%
    10:00 +23°C° 0,5 mm 6 mps 737 mmHg 78%
    11:00 +24°C° 0,5 mm 6 mps 737 mmHg 81%
    12:00 +25°C° 0,9 mm 5 mps 738 mmHg 81%
    13:00 +25°C° 0,9 mm 5 mps 738 mmHg 82%
    14:00 +25°C° 0,9 mm 4 mps 738 mmHg 83%
    15:00 +23°C° 1 mm 4 mps 739 mmHg 85%
    16:00 +22°C° 1 mm 4 mps 739 mmHg 88%
    17:00 +21°C° 1 mm 4 mps 739 mmHg 90%
    18:00 +20°C° 0,1 mm 4 mps 739 mmHg 88%
    19:00 +18°C° 0,1 mm 4 mps 740 mmHg 87%
    20:00 +17°C° 0,1 mm 4 mps 740 mmHg 85%
    21:00 +15°C° 0 mm 4 mps 741 mmHg 85%
    22:00 +13°C° 0 mm 4 mps 741 mmHg 85%
    23:00 +11°C° 0 mm 4 mps 742 mmHg 86%

    25 Junio, Lunes

    Tiempo Temperatura Precipitaciones Viento Presión Humedad
    00:00 +11°C° 0 mm 4 mps 742 mmHg 86%
    01:00 +11°C° 0 mm 4 mps 743 mmHg 87%
    02:00 +10°C° 0 mm 3 mps 743 mmHg 88%
    03:00 +10°C° 0 mm 4 mps 744 mmHg 86%
    04:00 +11°C° 0 mm 4 mps 744 mmHg 83%
    05:00 +11°C° 0 mm 4 mps 745 mmHg 81%
    06:00 +13°C° 0 mm 4 mps 745 mmHg 76%
    07:00 +14°C° 0 mm 4 mps 746 mmHg 71%
    08:00 +15°C° 0 mm 4 mps 746 mmHg 66%
    09:00 +18°C° 0 mm 4 mps 746 mmHg 61%
    10:00 +19°C° 0 mm 4 mps 746 mmHg 56%
    11:00 +21°C° 0 mm 4 mps 747 mmHg 51%
    12:00 +21°C° 0 mm 4 mps 747 mmHg 49%
    13:00 +22°C° 0 mm 4 mps 747 mmHg 48%
    14:00 +22°C° 0 mm 3 mps 747 mmHg 46%
    15:00 +22°C° 0 mm 3 mps 747 mmHg 49%
    16:00 +22°C° 0 mm 3 mps 747 mmHg 51%
    17:00 +23°C° 0 mm 2 mps 747 mmHg 53%
    18:00 +20°C° 0,1 mm 2 mps 747 mmHg 64%
    19:00 +18°C° 0,1 mm 2 mps 747 mmHg 74%
    20:00 +16°C° 0,1 mm 2 mps 747 mmHg 85%
    21:00 +15°C° 0 mm 2 mps 748 mmHg 88%
    22:00 +14°C° 0 mm 1 mps 748 mmHg 90%
    23:00 +13°C° 0 mm 1 mps 748 mmHg 93%

    26 Junio, Martes

    Tiempo Temperatura Precipitaciones Viento Presión Humedad
    00:00 +13°C° 0 mm 1 mps 748 mmHg 94%
    01:00 +13°C° 0 mm 1 mps 748 mmHg 95%
    02:00 +12°C° 0 mm 1 mps 749 mmHg 96%
    03:00 +13°C° 0 mm 1 mps 749 mmHg 94%
    04:00 +13°C° 0 mm 1 mps 749 mmHg 93%
    05:00 +14°C° 0 mm 1 mps 750 mmHg 92%
    06:00 +16°C° 0 mm 1 mps 750 mmHg 83%
    07:00 +18°C° 0 mm 2 mps 750 mmHg 75%
    08:00 +20°C° 0 mm 2 mps 750 mmHg 67%
    09:00 +21°C° 0,1 mm 2 mps 750 mmHg 63%
    10:00 +23°C° 0,1 mm 2 mps 750 mmHg 59%
    11:00 +22°C° 0,1 mm 3 mps 750 mmHg 55%
    12:00 +24°C° 0,1 mm 3 mps 750 mmHg 52%
    13:00 +25°C° 0,1 mm 3 mps 750 mmHg 50%
    14:00 +25°C° 0,1 mm 3 mps 750 mmHg 47%
    15:00 +25°C° 0 mm 2 mps 751 mmHg 50%
    16:00 +25°C° 0 mm 2 mps 751 mmHg 53%
    17:00 +24°C° 0 mm 1 mps 751 mmHg 56%
    18:00 +23°C° 0 mm 1 mps 751 mmHg 62%
    19:00 +21°C° 0 mm 1 mps 751 mmHg 69%
    20:00 +19°C° 0 mm 1 mps 751 mmHg 76%
    21:00 +18°C° 0 mm 1 mps 751 mmHg 78%
    22:00 +18°C° 0 mm 1 mps 751 mmHg 80%
    23:00 +16°C° 0 mm 1 mps 752 mmHg 82%
    Mostrar más